User: anonymous
Location: Unspecified
(0.0000°N, 0.0000°E)
Time: 22:35:27
(UTC+02:00)
Language:

NATO 3D Rocket - Orbit

View from above orbital plane
View from above orbital plane
View from above satellite
View from above satellite

Ground track
Ground track

The orbit data is extracted from the following two-line orbital elements,

1 15392U 84115B   14203.13869672  .00000147  00000-0 -27300-5 0  1791
2 15392 021.4916 119.3085 1034775 353.0181 137.7682 12.45417414351624
Epoch (UTC): 22 July 2014 03:19:43
Eccentricity: 0.1034775
inclination: 21.4916°
perigee height: 670 km
apogee height: 2297 km
right ascension of ascending node: 119.3085°
argument of perigee: 353.0181°
revolutions per day: 12.45417414
mean anomaly at epoch: 137.7682°
orbit number at epoch: 35162

The dashed part of the orbit path shows where the satellite is in the earth's shadow,  

DLR